KTXEAGLE7 Weather Reports


Display with metric or nautical units.
time (UTC)temp
F
wind
direction
speed
MPH
gust
MPH
rain 1hr
in
rain 24hr
in
rain mn
in
humidity
%
barometer
mb
20260901124518 76 292 0.0 0.0 0.00 0.00 0.00 97 1016.3
20260901123017 76 292 0.0 3.0 0.00 0.00 0.00 98 1016.0
20260901121519 76 311 0.0 3.0 0.00 0.00 0.00 97 1015.8
20260901120017 76 338 1.0 4.0 0.00 0.00 0.00 97 1015.8
20260901114514 76 26 0.0 3.0 0.00 0.00 0.00 97 1015.6
20260901113015 76 349 0.0 0.0 0.00 0.00 0.00 97 1015.5
20260901111514 76 349 0.0 2.0 0.00 0.00 0.00 97 1015.5
20260901110025 76 349 1.0 2.0 0.00 0.00 0.00 97 1015.5
20260901104511 77 13 0.0 2.0 0.00 0.00 0.00 97 1015.6
20260901103010 77 13 0.0 2.0 0.00 0.00 0.00 97 1015.5
20260901101511 77 13 1.0 4.0 0.00 0.00 0.00 97 1015.4
20260901100010 77 360 1.0 3.0 0.00 0.00 0.00 97 1015.4
20260901094511 77 45 0.0 0.0 0.00 0.00 0.00 97 1015.5
20260901093007 77 45 0.0 0.0 0.00 0.00 0.00 96 1015.4
20260901091506 78 45 0.0 2.0 0.00 0.00 0.00 97 1015.4
20260901090012 77 45 1.0 3.0 0.00 0.00 0.00 96 1015.4
20260901084503 78 45 0.0 2.0 0.00 0.00 0.00 96 1015.6
20260901083003 78 45 0.0 0.0 0.00 0.00 0.00 96 1015.7
20260901081614 78 45 0.0 3.0 0.00 0.00 0.00 95 1015.7
20260901074559 78 45 0.0 0.0 0.00 0.00 0.00 95 1015.8
20260901073058 78 45 0.0 0.0 0.00 0.00 0.00 95 1016.0
20260901071603 78 141 0.0 2.0 0.00 0.00 0.00 95 1016.0
20260901064555 78 141 0.0 2.0 0.00 0.00 0.00 94 1016.1
20260901063054 78 141 0.0 0.0 0.00 0.00 0.00 94 1016.2
20260901061555 78 141 0.0 0.0 0.00 0.00 0.00 94 1016.2
20260901060051 78 141 0.0 0.0 0.00 0.00 0.00 94 1016.1
20260901054550 79 141 0.0 2.0 0.00 0.00 0.00 94 1015.8
20260901053112 79 141 0.0 0.0 0.00 0.00 0.00 93 1015.9
20260901051547 78 141 0.0 1.0 0.00 0.00 0.00 93 1015.8
20260901050045 79 141 1.0 3.0 0.00 0.00 0.00 94 1015.9
20260901044551 79 141 0.0 0.0 0.00 0.00 0.00 93 1015.8
20260901043114 79 141 0.0 3.0 0.00 0.00 0.00 93 1015.8
20260901041543 79 141 2.0 3.0 0.00 0.00 0.00 93 1015.7
20260901040053 79 141 2.0 4.0 0.00 0.00 0.00 93 1015.5
20260901034558 79 141 0.0 0.0 0.00 0.00 0.00 93 1015.6
20260901033057 79 141 0.0 0.0 0.00 0.00 0.00 93 1015.5
20260901031542 80 141 0.0 3.0 0.00 0.00 0.00 92 1015.4
20260901030041 80 141 1.0 3.0 0.00 0.00 0.00 91 1015.1
20260901024547 80 141 2.0 3.0 0.00 0.00 0.00 90 1015.0
20260901023040 81 143 3.0 7.0 0.00 0.00 0.00 89 1014.8
20260901021540 81 140 4.0 5.0 0.00 0.00 0.00 89 1014.6
20260901020039 81 134 4.0 7.0 0.00 0.00 0.00 88 1014.2
20260901014539 82 140 6.0 10.0 0.00 0.00 0.00 87 1014.1
20260901013039 83 136 6.0 10.0 0.00 0.00 0.00 86 1014.3
20260901011546 83 134 8.0 13.0 0.00 0.00 0.00 85 1014.3
20260901010042 84 123 7.0 12.0 0.00 0.00 0.00 85 1014.2
20260901004537 84 132 9.0 13.0 0.00 0.00 0.00 83 1014.0
20260901003039 86 132 10.0 16.0 0.00 0.00 0.00 79 1014.0
20260901001537 87 135 8.0 15.0 0.00 0.00 0.00 71 1013.9
20260901000036 87 138 9.0 13.0 0.00 0.00 0.00 73 1013.8
20260831234539 88 136 11.0 18.0 0.00 0.00 0.00 68 1013.8
20260831233033 88 123 14.0 27.0 0.00 0.00 0.00 69 1014.1
20260831231535 92 115 11.0 17.0 0.00 0.00 0.00 62 1014.0
20260831230032 92 88 11.0 18.0 0.00 0.00 0.00 62 1013.6
20260831224532 93 105 10.0 15.0 0.00 0.00 0.00 61 1013.7
20260831223034 93 128 7.0 10.0 0.00 0.00 0.00 57 1013.7
20260831221530 94 128 6.0 10.0 0.00 0.00 0.00 54 1013.7
20260831220030 95 90 5.0 10.0 0.00 0.00 0.00 51 1013.7
20260831214532 96 109 8.0 12.0 0.00 0.00 0.00 51 1013.9
20260831213037 96 128 5.0 11.0 0.00 0.00 0.00 51 1014.1
20260831211522 95 75 0.0 7.0 0.00 0.00 0.00 54 1014.2
20260831210019 95 56 1.0 3.0 0.00 0.00 0.00 56 1014.3
20260831204517 95 146 2.0 9.0 0.00 0.00 0.00 53 1014.5
20260831203018 95 69 5.0 9.0 0.00 0.00 0.00 53 1014.9
20260831201517 95 61 6.0 10.0 0.00 0.00 0.00 54 1015.1
20260831200010 94 92 3.0 10.0 0.00 0.00 0.00 56 1015.1
20260831194509 95 80 5.0 9.0 0.00 0.00 0.00 53 1015.4
20260831193011 94 74 5.0 12.0 0.00 0.00 0.00 56 1015.6
20260831191506 94 160 4.0 9.0 0.00 0.00 0.00 56 1015.8
20260831190003 94 151 5.0 10.0 0.00 0.00 0.00 57 1016.0
20260831184608 92 314 0.0 3.0 0.00 0.00 0.00 61 1016.4
20260831183058 92 163 3.0 9.0 0.00 0.00 0.00 63 1016.3
20260831181602 92 198 4.0 9.0 0.00 0.00 0.00 61 1016.6
20260831180056 92 203 4.0 9.0 0.00 0.00 0.00 61 1016.7
20260831174557 91 158 1.0 9.0 0.00 0.00 0.00 63 1016.7
20260831173054 91 130 3.0 9.0 0.00 0.00 0.00 64 1016.9
20260831171551 90 184 4.0 9.0 0.00 0.00 0.00 65 1017.0
20260831170049 88 224 2.0 8.0 0.00 0.00 0.00 72 1017.0
20260831164548 89 184 4.0 7.0 0.00 0.00 0.00 73 1017.1
20260831163048 88 55 0.0 5.0 0.00 0.00 0.00 75 1017.3
20260831161542 87 238 3.0 5.0 0.00 0.00 0.00 78 1017.4
20260831160058 86 349 3.0 5.0 0.00 0.00 0.00 78 1017.3
20260831154538 85 309 1.0 3.0 0.00 0.00 0.00 83 1017.2
20260831153117 85 327 2.0 4.0 0.00 0.00 0.00 82 1017.4
20260831151539 85 249 0.0 5.0 0.00 0.00 0.00 82 1017.3
20260831150036 85 96 2.0 4.0 0.00 0.00 0.00 88 1017.2
20260831144528 83 90 2.0 4.0 0.00 0.00 0.00 91 1017.2
20260831143024 81 101 1.0 8.0 0.00 0.00 0.00 95 1017.2
20260831141523 80 90 4.0 6.0 0.00 0.00 0.00 95 1017.0
20260831140018 79 51 3.0 6.0 0.00 0.00 0.00 96 1017.0
20260831134515 78 82 2.0 6.0 0.00 0.00 0.00 97 1016.9
20260831133014 78 56 2.0 5.0 0.00 0.00 0.00 98 1016.7
20260831131512 76 44 2.0 4.0 0.00 0.00 0.00 98 1016.5
20260831130007 76 53 0.0 0.0 0.00 0.00 0.00 99 1016.3